Regional Weather Roundup
Issued by NWS Huntsville, AL

Home | Current Version | Previous Version | Text Only | Print | Product List | Glossary On
Versions: 1 2 3 4 5 6 7 8 9 10 11 12 13 14 15 16 17 18 19 20 21 22 23 24 25 26 27 28
000
ASUS44 KHUN 262310
RWRHUN

WEATHER ROUNDUP FOR THE TENNESSEE VALLEY
NATIONAL WEATHER SERVICE HUNTSVILLE AL
600 PM CDT MON SEP 26 2016

ALZ001>004-270000-
NORTHWEST ALABAMA

CITY           SKY/WX    TMP DP  RH WIND       PRES   REMARKS
COURTLAND HCN    N/A     81 N/A N/A N6          N/A
RUSSELLVILLE     N/A     81 N/A N/A MISG        N/A
SHOALS AIRPORT CLEAR     81  63  54 N6        30.01F
SHOALS TVA RES   N/A     81 N/A N/A MISG        N/A
$$

ALZ005>007-016-270000-
NORTH CENTRAL ALABAMA

CITY           SKY/WX    TMP DP  RH WIND       PRES   REMARKS
CULLMAN AG STN   N/A     82 N/A N/A SE3         N/A
DECATUR AP     CLEAR     82  67  60 N13       30.00R
HUNTSVILLE AP  PTCLDY    84  65  52 N10       29.99R
MERIDIANVILLE  CLEAR     79  61  53 N9        30.01R
REDSTONE ARSN  CLEAR     81  66  60 NE12      29.98R
VINEMONT AP    MOCLDY    83  63  52 CALM      30.01S
$$

ALZ008>010-270000-
NORTHEAST ALABAMA

CITY           SKY/WX    TMP DP  RH WIND       PRES   REMARKS
ALBERTVILLE    PTCLDY    79  70  73 CALM      30.00R
FORT PAYNE     MOCLDY    77  70  78 CALM      30.01S
SCOTTSBORO AP  MOCLDY    82  68  61 NE8       30.00R
SCOTTSBORO HCN   N/A     82 N/A N/A MISG        N/A
VALLEY HEAD      N/A     75 N/A N/A MISG        N/A
$$

TNZ076-096-097-270000-
SOUTHEASTERN MIDDLE TENNESSEE

CITY           SKY/WX    TMP DP  RH WIND       PRES   REMARKS
TULLAHOMA      CLEAR     73  63  68 N5        30.05R
WINCHESTER     CLEAR     79  66  65 N6        30.02S
$$

...SURROUNDING SITES...

CITY           SKY/WX    TMP DP  RH WIND       PRES   REMARKS
ATLANTA        CLOUDY    85  62  46 S5        30.01R
ANNISTON       LGT RAIN  79  65  62 E6        29.99R
BIRMINGHAM     MOCLDY    80  68  66 N6        29.98S
CHATTANOOGA    MOCLDY    76  68  76 E3        30.01F
CORINTH        FAIR      70  61  73 N9G16     30.04S
DALTON         CLOUDY    70  70 100 CALM      30.03S
GADSDEN        CLOUDY    81  67  62 NE9       29.99R
GOLDEN TRNGL   CLEAR     86  64  48 N12       29.97R
HALEYVILLE     FAIR      82  67  60 N7        30.02S
JACKSON TN     MOCLDY   N/A N/A N/A NW8       30.06F
MEMPHIS        MOCLDY    72  57  59 N13       30.06S
NASHVILLE      CLOUDY    67  60  78 N5        30.07S
OXFORD MS      FAIR      73  59  60 N13G18    30.04S
ROME           CLOUDY    70  69  97 E6        30.01F
SAVANNAH       PTCLDY    66  61  82 N7G15     30.05R
TUPELO         MOCLDY    79  60  52 NW13      30.00R
TUSCALOOSA     PTCLDY    82  66  58 W6        29.94R
$$

...GULF COAST WEATHER...

CITY           SKY/WX    TMP DP  RH WIND       PRES   REMARKS
GULFPORT       PTCLDY    87  71  58 S3        29.91S HX  93
PASCAGOULA     LGT RAIN  74  74 100 VRB5      29.97R FOG
MOBILE         CLOUDY    73  71  93 SW5       29.95F
GULF SHORES    CLOUDY    75  75 100 N3        29.94S
PENSACOLA      MOCLDY    77  75  93 CALM      29.93S
DESTIN         CLOUDY    81  72  74 NE6       29.94
PANAMA CITY    PTCLDY    80  72  77 E3        29.96R
APPALACHICOLA  CLOUDY    72  71  97 N8        29.94F
$$





USA.gov is the U.S. government's official web portal to all federal, state and local government web resources and services.